Regional Weather Roundup
Issued by NWS

Home | Current Version | Previous Version | Text Only | Print | Product List | Glossary On
Versions: 1 2 3 4 5 6 7 8 9 10 11 12 13 14 15 16 17 18 19 20 21 22 23 24 25 26 27
000
ASUS45 KREV 031010
RWRNV
NEVADA REGIONAL WEATHER ROUNDUP
NATIONAL WEATHER SERVICE RENO NV
200 AM PST SAT DEC 03 2016

NOTE: "FAIR" INDICATES FEW OR NO CLOUDS BELOW 12,000 FEET WITH NO
SIGNIFICANT WEATHER AND/OR OBSTRUCTIONS TO VISIBILITY.

NVZ001-003-004-031100-
WESTERN NEVADA

CITY           SKY/WX    TMP DP  RH WIND       PRES   REMARKS
RENO           PTCLDY    25  15  66 CALM      30.33
CARSON CITY    FAIR      25  14  63 CALM      30.35F
MINDEN         FAIR      18  12  79 CALM      30.35S
PYRAMID LAKE     N/A     34 N/A N/A S6          N/A
FALLON         PTCLDY    24  14  65 SE9       30.34F
LOVELOCK       MOCLDY    20  14  77 CALM      30.33
HAWTHORNE        N/A     23  12  63 CALM      30.38
$$

NVZ002-CAZ072-073-031100-
NORTHERN AND CENTRAL SIERRA

CITY           SKY/WX    TMP DP  RH WIND       PRES   REMARKS
S. LAKE TAHOE  CLEAR     17   9  70 CALM      30.30
TRUCKEE        CLEAR     14  10  85 CALM      30.31F
SQUAW VLY 8000   N/A     30  19  64 S2          N/A
SUSANVILLE     CLEAR    N/A N/A N/A W5        30.33S
MAMMOTH LAKES  FAIR      19  -5  34 N3        30.28S
BRIDGEPORT       N/A     13   6  74 CALM      30.30R
$$

NVZ030-031-036-031100-
NORTHERN NEVADA

CITY           SKY/WX    TMP DP  RH WIND       PRES   REMARKS
ELKO           PTCLDY    21  15  78 CALM      30.29R
WINNEMUCCA     PTCLDY    28  19  69 S12       30.30S
WENDOVER       CLOUDY    25  16  68 N3        30.27R
$$

NVZ035-037-031100-
CENTRAL NEVADA

CITY           SKY/WX    TMP DP  RH WIND       PRES   REMARKS
ELY            NOT AVBL
EUREKA           N/A     10   4  76 SW7       30.28F
$$

NVZ013-014-031100-
SOUTH CENTRAL NEVADA

CITY           SKY/WX    TMP DP  RH WIND       PRES   REMARKS
TONOPAH        PTCLDY    21   9  59 N14       30.30R
$$

NVZ017-020-022-031100-
SOUTHERN NEVADA

CITY           SKY/WX    TMP DP  RH WIND       PRES   REMARKS
LAS VEGAS      NOT AVBL
N. LAS VEGAS   CLEAR     44  11  26 N18G26    30.22S
NELLIS AFB     CLEAR     42  12  29 W5        30.24R
HENDERSON      CLEAR     42  11  28 N14       30.24R
MERCURY        CLEAR     34  11  38 NE15      30.24F
$$




USA.gov is the U.S. government's official web portal to all federal, state and local government web resources and services.